Dewpoint
68 68 69 69 68 67 66 65 63 65 65 65 65 65 64 63 60 63 64 64 67 66 66 67 64 63 65 65 64 64 65 63 64
66 66 67 67 66 66 64 64 64 65 65 66 65 64 64 59 61 61 63 64 67 67 66 67 67 66 66 66 67 67 68 66 64
65 65 66 65 65 65 64 64 65 65 66 64 64 64 65 60 60 60 61 66 66 65 64 64 64 63 63 63 63 64 65 65 66
65 66 65 65 64 64 65 66 66 65 64 64 65 64 63 59 59 57 60 66 64 64 62 62 62 61 61 61 61 61 62 62 62
66 66 65 64 65 66 66 66 65 62 61 64 64 63 63 59 60 58 62 64 62 63 61 61 60 60 60 59 59 59 59 59 59
62 64 65 65 67 67 67 65 62 64 64 64 61 61 58 57 57 56 65 62 61 62 60 60 58 57 57 57 57 56 56 56 56
59 62 66 66 67 67 67 63 59 58 55 57 58 55 55 54 55 56 64 61 60 60 59 58 56 54 54 54 54 54 54 53 54
59 60 62 62 64 62 64 60 52 50 49 52 51 52 52 51 52 55 62 61 59 58 56 55 53 52 53 52 53 53 53 53 52
57 56 59 60 61 61 61 58 54 49 46 46 48 48 46 44 47 52 62 60 58 55 54 52 51 51 51 51 51 52 52 52 51
59 59 57 59 60 59 59 57 53 49 44 42 44 42 40 41 44 47 61 61 56 53 53 50 48 49 50 49 49 50 50 50 50
60 61 60 59 59 59 59 56 50 46 41 38 38 38 38 40 42 47 56 60 57 53 50 47 46 46 47 47 47 47 47 47 48
61 60 61 61 60 58 58 56 51 45 39 37 34 36 36 39 40 45 49 53 55 53 47 46 44 45 45 43 44 44 42 42 44
60 60 60 61 61 59 57 55 50 45 40 37 34 33 36 38 39 44 45 46 44 48 47 44 43 41 39 41 40 39 40 40 42
60 59 60 60 61 60 58 54 51 46 41 38 35 33 34 37 37 40 43 43 41 40 45 46 44 38 36 36 36 36 37 39 39
61 59 59 60 61 61 59 54 49 47 43 33 31 34 32 33 37 37 39 39 40 39 37 37 35 37 35 33 34 35 36 39 40
62 61 59 60 60 61 59 55 50 45 42 36 36 34 33 32 31 36 37 37 37 36 36 34 30 30 35 33 33 35 38 38 39
63 62 61 60 60 60 60 56 50 48 41 41 42 39 34 31 31 32 33 34 34 32 32 30 29 28 27 32 33 31 33 37 39
64 63 62 62 61 60 61 58 51 48 42 41 44 42 43 34 32 31 32 32 32 31 30 29 27 27 26 30 33 35 35 37 39
63 63 63 62 62 60 60 58 54 52 44 39 35 34 37 36 34 29 31 30 28 31 31 27 26 26 27 31 34 33 33 35 38
62 61 63 62 62 61 59 57 54 53 50 44 39 36 36 32 36 35 30 30 28 28 28 26 24 24 27 29 31 31 32 34 37
Lifted_Index
1 1 1 1 2 2 3 4 4 4 3 3 3 3 3 3 2 1 0 -0 -1 -1 -1 -1 -1 -0 -1 -1 -1 -1 -1 -0 0
1 1 1 2 2 2 3 4 4 3 3 3 3 3 3 3 2 1 0 -0 -1 -1 -1 -1 -0 -0 -0 -0 -0 -1 -1 -0 -0
1 1 1 2 2 2 3 3 2 2 2 2 3 3 3 2 2 1 1 -0 -0 -0 0 0 1 1 1 1 1 1 0 0 0
1 1 1 2 2 2 1 1 1 2 2 2 3 3 3 2 2 2 1 0 0 1 1 2 2 2 2 2 2 2 2 2 1
1 1 1 1 1 0 0 0 1 2 2 2 3 3 3 2 2 2 1 1 1 1 2 3 3 3 4 4 4 4 4 4 4
2 1 1 1 0 -0 -0 1 2 3 3 3 3 3 3 2 2 2 1 1 2 2 3 4 4 5 5 5 5 6 6 6 6
2 1 1 0 -0 -1 -0 1 3 4 3 3 4 3 3 3 3 2 2 2 3 3 4 5 6 7 7 7 7 7 7 7 7
2 2 1 1 0 -0 0 2 4 4 4 4 4 4 5 5 5 4 2 2 3 4 5 6 7 8 8 8 8 8 8 8 8
2 2 1 1 1 0 1 2 4 4 5 4 4 5 6 6 6 5 3 3 4 5 6 7 8 8 8 8 8 8 8 8 8
1 1 1 1 1 1 1 2 4 4 4 4 4 5 7 8 7 5 4 3 5 6 7 8 9 9 9 9 9 9 9 9 9
0 0 1 1 1 1 1 2 4 4 4 4 4 5 7 9 8 6 4 4 6 7 8 9 10 10 10 10 10 10 11 11 10
0 0 -0 0 0 1 1 3 4 4 4 4 4 5 7 9 9 7 6 6 7 8 9 10 11 11 11 11 11 12 12 12 12
0 0 -0 -0 -0 1 2 3 4 4 3 3 4 4 6 9 10 9 8 8 9 10 11 12 12 12 12 13 13 13 13 13 13
0 0 -0 -0 -0 0 1 3 3 3 3 3 3 4 6 9 10 10 10 10 11 12 13 13 14 14 14 14 14 14 14 14 14
-1 -1 -0 -0 -0 -0 1 2 3 3 2 2 3 3 4 7 9 10 10 11 12 13 14 14 15 15 15 15 15 15 15 14 14
-2 -1 -1 -1 -1 -1 0 1 2 2 2 2 2 2 3 5 8 9 10 11 12 13 14 14 15 15 16 16 16 16 15 15 15
-2 -2 -1 -1 -1 -1 -0 1 1 1 1 1 1 2 2 3 5 7 8 9 11 12 13 14 14 15 15 16 16 16 16 16 16
-1 -1 -1 -1 -1 -1 -0 0 0 1 1 1 1 1 1 1 2 4 6 8 9 11 12 13 13 14 15 15 16 16 16 17 17
-1 -1 -1 -1 -1 -1 -1 -0 0 0 1 1 1 1 1 1 1 2 3 5 7 9 11 12 13 14 15 15 16 16 17 17 17
-1 -1 -1 -1 -1 -1 -1 -1 -0 0 0 1 1 1 1 1 1 1 2 3 5 7 10 11 12 13 14 15 16 16 17 17 18